Regional Weather Roundup
Issued by NWS

Home | Current Version | Previous Version | Text Only | Print | Product List | Glossary On
Versions: 1 2 3 4 5 6 7 8 9 10 11 12 13 14 15 16 17 18 19 20 21 22 23 24 25 26 27
000
ASUS46 KPQR 010710
RWROR

OREGON REGIONAL WEATHER ROUNDUP
NATIONAL WEATHER SERVICE PORTLAND OR
1200 AM PDT SUN MAY 01 2016

NOTE: "FAIR" INDICATES FEW OR NO CLOUDS BELOW 12,000 FEET WITH
NO SIGNIFICANT WEATHER AND/OR OBSTRUCTIONS TO VISIBILITY.

ORZ001>013-010800-
NORTHWEST OREGON


CITY           SKY/WX    TMP DP  RH WIND       PRES   REMARKS
ASTORIA        CLEAR     47  45  93 S5        30.26F FOG
NEWPORT        CLEAR     45  43  93 NE5       30.24F
PORTLAND       CLEAR     55  45  68 NW7       30.22F
VANCOUVER WA   CLEAR     57  44  62 VRB3      30.21F
SCAPPOOSE      CLEAR     59  43  55 NW10      30.21F
HILLSBORO      CLEAR     52  45  77 NW8       30.22F
AURORA         CLEAR     54  46  74 NE5       30.22F
MCMINNVILLE    CLEAR     56  44  64 N5        30.22F
SALEM          CLEAR     53  45  74 NW3       30.20F
CORVALLIS        N/A     52  46  82 NW7       30.21F
EUGENE         CLEAR     53  46  77 N8        30.19F
$$

ORZ021-028-010800-
SOUTHWEST OREGON


CITY           SKY/WX    TMP DP  RH WIND       PRES   REMARKS
NORTH BEND     CLEAR     52  50  93 N6        30.18F
BROOKINGS      CLEAR     65  44  46 NE9G24    30.03F
ROSEBURG       CLEAR     52  44  74 CALM      30.16F
SEXTON SUMMIT  CLEAR     44  41  89 NE14      30.14F
MEDFORD        CLEAR     54  45  71 SW3       30.13S
$$

ORZ014>016-041-010800-
COLUMBIA GORGE


CITY           SKY/WX    TMP DP  RH WIND       PRES   REMARKS
TROUTDALE      CLEAR     52  46  80 E3        30.22S
THE DALLES     CLEAR     55  46  71 NW5       30.21S
$$

ORZ029>031-041-044-049-050-061>064-502-503-505>511-010800-
EASTERN OREGON


CITY           SKY/WX    TMP DP  RH WIND       PRES   REMARKS
REDMOND        CLEAR     47  32  56 NW8       30.20F
BEND           CLEAR     43  32  65 CALM      30.20F
PRINEVILLE     CLEAR     39  30  70 CALM      30.20F
KLAMATH FALLS  CLEAR     51  30  44 NE14G22   30.15S
LAKEVIEW       CLEAR     45  28  53 N14       30.18S
HERMISTON      CLEAR     50  43  77 S5        30.19F
PENDLETON      CLEAR     47  41  80 SE7       30.20F
JOHN DAY       MOCLDY    47  38  70 NW3       30.19S
MEACHAM        CLEAR     34  31  88 CALM      30.22F
LA GRANDE      CLEAR     50  36  57 N13       30.19F
BAKER CITY     CLEAR     45  36  70 NW10      30.19R
BURNS          CLEAR     40  30  67 NW8       30.16S WCI  34
ROME             N/A     43  33  68 NE7       30.13S
ONTARIO        CLEAR     50  38  63 NW7       30.10S
$$




USA.gov is the U.S. government's official web portal to all federal, state and local government web resources and services.